Regional Weather Roundup
Issued by NWS

Home | Current Version | Previous Version | Graphics & Text | Print | Product List | Glossary On
Versions: 1 2 3 4 5 6 7 8 9 10 11 12 13 14 15 16 17 18 19 20 21 22 23 24 25 26 27 28 29 30 31 32 33 34 35 36 37 38 39 40 41 42 43 44 45 46 47 48 49 50
000
ASUS43 KIND 231259
RWRIN

WEATHER ROUNDUP FOR INDIANA
NATIONAL WEATHER SERVICE INDIANAPOLIS IN
900 AM EDT THU MAR 23 2017

NOTE: "FAIR" INDICATES FEW OR NO CLOUDS BELOW 12,000 FEET WITH NO
SIGNIFICANT WEATHER AND/OR OBSTRUCTIONS TO VISIBILITY.

* - STATION DOES NOT REPORT WEATHER SUCH AS PRECIPITATION OR FOG.

+ - STATION NOT QUALITY CONTROLLED BY THE NATIONAL WEATHER SERVICE.
    USE DATA WITH CAUTION...ESPECIALLY DEWPOINT AND RELATIVE
    HUMIDITY OBSERVATIONS.

INZ001>003-010>013-019-020-231400-
NORTHWEST INDIANA

CITY           SKY/WX    TMP DP  RH WIND       PRES   REMARKS
GARY /AIRPORT/ PTSUNNY   32  18  55 SE12      30.44S WCI  23
KNOX *+        CLOUDY    30   0  27 SE9       30.45S WCI  22
MICHIGAN CITY+ CLOUDY    30  18  59 SE8       30.45F WCI  23
MONTICELLO +   CLOUDY    29  19  66 E7        30.44S WCI  22
RENSSELAER +     N/A     32  23  69 E12       30.43S WCI  23

$$

LMZ046-743>745-231400-
SOUTHERN LAKE MICHIGAN

STATION/POSITION TIME  TEMP    WIND        PRES    WAVE
                       AIR SEA DIR/SP/G            HT
                 (UTC) (F)     (DEG/KT/KT) (MB)    (FT)
BURNS HARBOR     1240   31     140/  6/ 11 1031.2R
MICHIGAN CITY    1230   30     130/ 11/ 16   N/A

$$

INZ004-005-014>016-021>024-231400-
NORTH CENTRAL INDIANA

CITY           SKY/WX    TMP DP  RH WIND       PRES   REMARKS
ELKHART        CLOUDY    28  16  59 SE9       30.48R WCI  20
GOSHEN         MOSUNNY   28  12  51 E12       30.46S WCI  18
SOUTH BEND     CLOUDY    28  16  60 SE12      30.47R WCI  18

$$

INZ006>009-017-018-025>027-231400-
NORTHEAST INDIANA

CITY           SKY/WX    TMP DP  RH WIND       PRES   REMARKS
ANGOLA *+      SUNNY     25  10  54 SE13      30.47F WCI  13
FORT WAYNE     CLOUDY    25  17  72 E10       30.48F WCI  15
KENDALLVILLE + MOSUNNY   26  14  60 SE12G17   30.47F WCI  16

$$

INZ028-029-035-036-043>045-051>053-231400-
WEST CENTRAL INDIANA

CITY           SKY/WX    TMP DP  RH WIND       PRES   REMARKS
CRAWFORDSVL +  CLOUDY    29  22  73 SE10      30.40S WCI  20
GREENCASTLE +  CLOUDY    30  21  69 SE9       30.40F WCI  22
LAFAYETTE      CLOUDY    30  22  72 E8        30.43R WCI  22
TERRE HAUTE    PTSUNNY   32  20  61 E9        30.40S WCI  24

$$

INZ030>032-037>040-046>048-054>057-064-065-231400-
CENTRAL INDIANA

CITY           SKY/WX    TMP DP  RH WIND       PRES   REMARKS
COLUMBUS       SUNNY     30  21  69 E7        30.43S WCI  23
GREENWOOD *+   MOSUNNY   30  20  67 SE9       30.42F WCI  22
INDIANAPOLIS   PTSUNNY   30  19  63 E12       30.42S WCI  20
-EAGLE CREEK   CLOUDY    30  18  60 SE9       30.41F WCI  22
KOKOMO +       MOSUNNY   29  22  75 E12       30.46R WCI  19
SHELBYVILLE    MOSUNNY   31  19  61 E12       30.42F WCI  22

$$

INZ033-034-041-042-049-050-058-059-231400-
EAST CENTRAL INDIANA

CITY           SKY/WX    TMP DP  RH WIND       PRES   REMARKS
MUNCIE         CLOUDY    29  19  66 SE12      30.44S WCI  19
RICHMOND +     MOSUNNY   27  19  74 E13       30.44F WCI  16

$$

INZ060-061-067>069-081>083-085>088-231400-
SOUTHWEST INDIANA

CITY           SKY/WX    TMP DP  RH WIND       PRES   REMARKS
EVANSVILLE     CLOUDY    38  22  52 E7        30.38R
HUNTINGBURG *+ CLOUDY    36  20  52 E15       30.38S

$$

INZ062-063-066-070>080-084-089>092-231400-
SOUTH CENTRAL AND SOUTHEAST INDIANA

CITY           SKY/WX    TMP DP  RH WIND       PRES   REMARKS
BLOOMINGTON    SUNNY     32  18  56 SE14      30.39S WCI  22
MADISON *+     MOSUNNY   32  16  51 E9G16     30.45R WCI  24
SEYMOUR +      SUNNY     34  19  55 E7        30.43R WCI  28

$$





USA.gov is the U.S. government's official web portal to all federal, state and local government web resources and services.